Weather History for EGNS - November, 2011

Change the Weather History Date:

Tuesday, November 22, 2011

  Actual Average Record
Temperature  
Mean Temperature 50 °F -  
Max Temperature 53 °F 47 °F 55 °F (2014)
Min Temperature 46 °F 40 °F 33 °F (2013)
Degree Days  
Heating Degree Days 16    
Moisture  
Dew Point 41 °F    
Average Humidity 72    
Maximum Humidity 94    
Minimum Humidity 52    
Precipitation  
Precipitation 0.00 in - - ()
Sea Level Pressure  
Sea Level Pressure 30.06 in    
Wind  
Wind Speed 11 mph ()    
Max Wind Speed 20 mph    
Max Gust Speed -    
Visibility 6.5 miles    
Events Rain    
Averages and records for this station are not official NWS values.
T = Trace of Precipitation, MM = Missing Value Source: Averaged Metar Reports

Daily Weather History Graph

Daily Weather History Graph

Search for Another Location

Airport or City:

Trip Planner

Search our weather history database for the weather conditions in past years. The results will help you decide how hot, cold, wet, or windy it might be!

Date:

Astronomy

Nov. 22, 2011 Rise Set
Actual Time 7:58 AM GMT 4:09 PM GMT
Civil Twilight 7:17 AM GMT 4:50 PM GMT
Nautical Twilight 6:33 AM GMT 5:34 PM GMT
Astronomical Twilight 5:51 AM GMT 6:17 PM GMT
Moon 4:09 AM GMT (11/22) 2:18 PM GMT (11/22)
Length of Visible Light 9h 32m
Length of Day
8h 11m
Waning Crescent, 11% of the Moon is Illuminated
Nov 22
Waning Crescent
Nov 25
New
Dec 2
First Quarter
Dec 10
Full
Dec 18
Last Quarter

Hourly Weather History & Observations

Time (GMT) Temp. Windchill Dew Point Humidity Pressure Visibility Wind Dir Wind Speed Gust Speed Precip Events Conditions
12:50 AM 51.8 °F - 50.0 °F 94% 29.92 in 2.5 mi South 11.5 mph - N/A Rain Rain
1:50 AM 50.0 °F - 48.2 °F 94% 29.89 in 6.2 mi North 15.0 mph - N/A Rain Rain
2:50 AM 48 °F - 45 °F 84% 29.94 in 9 mi NNW 16.1 mph - - Rain Light Rain
2:50 AM 48.2 °F - 44.6 °F 87% 29.92 in 6.2 mi NNW 16.1 mph - N/A   Mostly Cloudy
3:50 AM 48.2 °F - 44.6 °F 87% 29.92 in 6.2 mi Variable 15.0 mph - N/A   Partly Cloudy
4:50 AM 48.2 °F - 42.8 °F 82% 29.95 in 6.2 mi NNW 10.4 mph - N/A   Mostly Cloudy
5:20 AM 48.2 °F - 44.6 °F 87% 29.95 in 6.2 mi NW 10.4 mph - N/A   Mostly Cloudy
5:50 AM 48 °F - 43 °F 77% 29.99 in 19 mi WNW 6.9 mph - -   Partly Cloudy
5:50 AM 48.2 °F - 42.8 °F 82% 29.98 in 6.2 mi WNW 6.9 mph - N/A   Mostly Cloudy
6:20 AM 48.2 °F - 42.8 °F 82% 29.98 in 6.2 mi NW 9.2 mph - N/A   Mostly Cloudy
6:50 AM 48.2 °F - 42.8 °F 82% 30.01 in 6.2 mi NW 8.1 mph - N/A   Scattered Clouds
7:20 AM 48.2 °F - 41.0 °F 76% 30.01 in 6.2 mi NW 10.4 mph - N/A   Partly Cloudy
7:50 AM 48.2 °F - 42.8 °F 82% 30.04 in 6.2 mi NW 10.4 mph - N/A   Scattered Clouds
8:20 AM 46.4 °F 41.9 °F 41.0 °F 81% 30.04 in 6.2 mi NW 9.2 mph - N/A   Partly Cloudy
8:50 AM 47 °F - 41 °F 72% 30.06 in 25 mi NW 8.1 mph - -   Scattered Clouds
8:50 AM 46.4 °F 42.4 °F 41.0 °F 81% 30.04 in 6.2 mi NW 8.1 mph - N/A   Partly Cloudy
9:20 AM 48.2 °F - 41.0 °F 76% 30.06 in 6.2 mi NW 9.2 mph - N/A   Partly Cloudy
9:50 AM 48.2 °F - 39.2 °F 71% 30.06 in 6.2 mi NW 9.2 mph - N/A   Partly Cloudy
10:20 AM 50.0 °F - 39.2 °F 66% 30.06 in 6.2 mi NW 9.2 mph - N/A   Partly Cloudy
10:50 AM 50.0 °F - 39.2 °F 66% 30.06 in 6.2 mi NW 6.9 mph - N/A   Partly Cloudy
11:20 AM 50.0 °F - 39.2 °F 66% 30.06 in 6.2 mi WNW 8.1 mph - N/A   Partly Cloudy
11:50 AM 51 °F - 39 °F 53% 30.10 in 25 mi WNW 9.2 mph - -   Scattered Clouds
11:50 AM 51.8 °F - 39.2 °F 62% 30.09 in 6.2 mi WNW 9.2 mph - N/A   Partly Cloudy
12:20 PM 50.0 °F - 37.4 °F 62% 30.09 in 6.2 mi West 10.4 mph - N/A   Partly Cloudy
12:50 PM 50.0 °F - 35.6 °F 58% 30.09 in 6.2 mi West 11.5 mph - N/A   Partly Cloudy
1:20 PM 50.0 °F - 35.6 °F 58% 30.09 in 6.2 mi West 9.2 mph - N/A   Partly Cloudy
1:50 PM 50.0 °F - 35.6 °F 58% 30.09 in 6.2 mi West 10.4 mph - N/A   Partly Cloudy
2:20 PM 50.0 °F - 35.6 °F 58% 30.09 in 6.2 mi West 10.4 mph - N/A   Partly Cloudy
2:50 PM 49 °F - 37 °F 52% 30.12 in 25 mi West 9.2 mph - -   Scattered Clouds
2:50 PM 48.2 °F - 37.4 °F 66% 30.09 in 6.2 mi West 9.2 mph - N/A   Partly Cloudy
3:20 PM 48.2 °F - 37.4 °F 66% 30.09 in - West 10.4 mph - N/A   Clear
3:50 PM 46.4 °F 42.9 °F 37.4 °F 71% 30.09 in - WSW 6.9 mph - N/A   Clear
4:20 PM 46.4 °F 42.4 °F 37.4 °F 71% 30.09 in - WSW 8.1 mph - N/A   Clear
4:50 PM 46.4 °F 41.5 °F 37.4 °F 71% 30.12 in - WSW 10.4 mph - N/A   Clear
5:20 PM 48.2 °F - 39.2 °F 71% 30.12 in - SW 11.5 mph - N/A   Clear
5:50 PM 49 °F - 39 °F 59% 30.13 in 31 mi SW 15.0 mph - -   Clear
5:50 PM 48.2 °F - 39.2 °F 71% 30.12 in - SW 15.0 mph - N/A   Clear
6:20 PM 50.0 °F - 41.0 °F 71% 30.12 in - SW 17.3 mph - N/A   Clear
6:50 PM 50.0 °F - 39.2 °F 66% 30.12 in 6.2 mi SW 17.3 mph - N/A   Partly Cloudy
7:20 PM 50.0 °F - 41.0 °F 71% 30.12 in 6.2 mi SW 17.3 mph - N/A   Partly Cloudy
7:50 PM 50.0 °F - 42.8 °F 76% 30.12 in 6.2 mi SW 18.4 mph - N/A   Mostly Cloudy
8:20 PM 50.0 °F - 41.0 °F 71% 30.12 in 6.2 mi SW 17.3 mph - N/A   Partly Cloudy
8:50 PM 50 °F - 42 °F 66% 30.13 in 25 mi SW 16.1 mph - -   Scattered Clouds
8:50 PM 50.0 °F - 42.8 °F 76% 30.12 in 6.2 mi SW 16.1 mph - N/A   Partly Cloudy
9:50 PM 50.0 °F - 42.8 °F 76% 30.12 in 6.2 mi SW 18.4 mph - N/A   Scattered Clouds
10:50 PM 51.8 °F - 44.6 °F 76% 30.12 in 6.2 mi SW 17.3 mph - N/A   Scattered Clouds
11:50 PM 53 °F - 46 °F 69% 30.13 in 25 mi SW 19.6 mph - -   Mostly Cloudy
11:50 PM 53.6 °F - 46.4 °F 77% 30.12 in 6.2 mi SW 19.6 mph - N/A   Mostly Cloudy